Showing default

DUMMY SAT 3/ORION, 59479

Orbit data source: Space-Track

DUMMY SAT 3/ORION, 59479 is a payload satellite owned by Khrunichev (CIS) in GEO that was launched on Thu, 11 Apr 2024 UTC via an ANGARA A5/ORION launch vehicle from the Vostochny Cosmodrome (VOSTO). Payload-class satellites include a variety of spacecraft equipped with specific instruments for various scientific and technological missions. These include communications satellites like Starlink; space stations such as the ISS; scientific satellites like the Hubble; Earth observation satellites from companies like Planet Labs, Umbra, and HawkEye 360; GPS; miniature CubeSats for education and research; and military/defense satellites.

Not visible in the next 10 days
Identifier
59479, 2024-069A
Orbit
GEO
Country
Flag of CISCIS
Related business
Manufacturer
Khrunichev
Mission
Operational Civil Technology
Bus & Motor
GVM, Unknown motor
Mass
~20,000 kg wet, 2,400 kg dry
Launch date (UTC)
2024-04-11 (2 years ago)
Launch vehicle
ANGARA A5/ORION
Launch site
Vostochny Cosmodrome (VOSTO)
Object type
Payload
Rocket body
Debris
Shape & HBR
Flared Cyl, 2.0 m
Radar Cross Section
7.854 m²

Expand to show TLE details & history
Last TLE update: 16 hours ago

TLE from 16 hours ago
0 DUMMY SAT 3/ORION
1 59479U 24069A   25299.17351559 -.00000192  00000-0  00000+0 0  9990
2 59479   1.5095  84.0427 0051740 127.6417 232.9811  0.98609087  5509
Epoch: 2025-10-26T04:09Z
TLE epoch observation values (Epoch: 2025-10-26T04:09:51.746Z)
Latitude
-0°
Longitude
-13.10326°
Altitude
36,393.216 km
Speed
3.048 km/s
True Right ascension
05h 36m 37s
True Declination
0° 00' 00"
Sunlit
Object was in daylight at epoch
Visualization orbit readout
Latitude
Unknown
Longitude
Unknown
Altitude
Unknown
Speed
Unknown
Apparent Right ascension
Unknown
Apparent Declination
Unknown
Sunlit
N/A
Visualization observer readout
Local Sidereal Time
15:19:25
Azimuth
Unknown
Elevation
Unknown
Doppler factor
Unknown
Orbital elements
Apogee altitude
36,480.916 km
Perigee altitude
36,039.694 km
Semi-major axis
42,638.442 km
Eccentricity
0.00517
Inclination
1.5095°
RAAN
84.0427°
Arg. of periapsis
127.6417°
True anomaly
232.50955°
Mean anomaly
232.9811°
Eccentric anomaly
232.74514°
Mean motion
0.24651 °/min
Orbital period
1,460.36 mins
BSTAR
0
Loading maneuver chart data...
Computing Atmospheric mass density...
Loading historical data...
Loading historical data...
Loading historical data...
Loading historical data...
Loading historical data...
Loading historical data...
Loading historical data...
Other satellites on launch #69 in the year 2024 (2024-04-11 UTC)

Documentation

Showing up to 5 results
|